Location: Les Moreaux
(47.2278°N, 1.4966°E)
Time: 21:14:08
(UTC+00:00)

Cosmos 1570 Rocket - Pass Details

Date: 19 May 2025
Orbit: 759 x 785 km, 74.1° (Epoch: 18 June)

Event Time Altitude Azimuth Distance (km) Brightness Sun altitude
Exits shadow 21:19:34 - 198° (SSW) 2,718 6.5 -14.7°
Reaches altitude 10° 21:20:39 10° 198° (SSW) 2,295 6.1 -14.8°
Maximum altitude 21:25:52 85° 111° (ESE) 778 3.9 -15.3°
Drops below altitude 10° 21:31:10 10° 23° (NNE) 2,328 6.9 -15.8°
Sets 21:33:34 0° 23° (NNE) 3,264 7.7 -16.1°
